Location: *
(46.3500°N, 10.9000°E)
Time: 00:31:50
(UTC+00:00)

Vanguard 2 - Pass Details

Date: 22 April 2021
Orbit: 552 x 2938 km, 32.9° (Epoch: 12 May)

Event Time Altitude Azimuth Distance (km) Brightness Sun altitude
Rises 12:51:52 0° 251° (WSW) 6,632 12.8 50.3°
Reaches altitude 10° 12:56:54 10° 246° (WSW) 5,412 12.6 49.8°
Maximum altitude 13:10:39 42° 183° (S) 2,659 11.5 48.2°
Drops below altitude 10° 13:19:41 10° 116° (ESE) 3,601 10.9 47.0°
Sets 13:22:20 0° 109° (ESE) 4,295 11.1 46.7°
